User: anonymous   Login
Location: Rancho Penasquitos
(32.9595°N, 117.1153°W)
Time: 06:16:15
(UTC+00:00)
Language:

Cosmos 1513 Rocket - Orbit

View from above orbital plane
View from above orbital plane
View from above satellite
View from above satellite

Ground track
Ground track

The orbit data is extracted from the following two-line orbital elements,

1 14547U 83120B   22270.78506921  .00000158  00000-0  14365-3 0  9992
2 14547  82.9273  95.9254 0045782 227.9530 131.7728 13.77177928705645
Epoch (UTC): 27 September 2022 18:50:29
Eccentricity: 0.0045782
inclination: 82.9273°
perigee height: 940 km
apogee height: 1007 km
right ascension of ascending node: 95.9254°
argument of perigee: 227.9530°
revolutions per day: 13.77177928
mean anomaly at epoch: 131.7728°
orbit number at epoch: 70564

The dashed part of the orbit path shows where the satellite is in the earth's shadow,  

DLR